Simultaneous Nadir Overpasses (SNOs) Predictions

Prediction of SNOs between METOP-B and NOAA-19 Satellite Orbit:

Table of predicted SNOs for the next 14.0 days since TLE Epoch: 9/28/2024
Index Date (METOP-B) Time (METOP-B) Lat,Lon (METOP-B) SZA (METOP-B ) Date (NOAA-19) Time (NOAA-19) Lat,Lon (NOAA-19) SZA (NOAA-19 ) Distance(km) Time Diff (sec)
1 10/04/2024 17:59:08 -76.80,-170.25 82.55 10/04/2024 17:58:12 -76.78,-170.16 82.58 2.80 56
2 10/04/2024 18:49:47 76.69, -2.49 97.59 10/04/2024 18:49:04 76.70, -2.52 97.54 1.09 43
3 10/04/2024 19:40:20 -76.38, 165.99 82.08 10/04/2024 19:40:00 -76.37, 165.99 82.10 0.14 20
4 10/04/2024 20:30:56 76.12, -25.80 98.19 10/04/2024 20:30:48 76.10, -25.72 98.21 2.76 8
5 10/04/2024 21:21:31 -75.90, 142.29 81.57 10/04/2024 21:21:47 -75.91, 142.22 81.58 2.57 16
6 10/04/2024 22:12:07 75.63, -49.55 98.71 10/04/2024 22:12:35 75.63, -49.55 98.74 0.02 28
7 10/04/2024 23:02:37 -75.17, 119.18 80.83 10/04/2024 23:03:28 -75.16, 119.21 80.77 1.19 51



Historial Predications of SNOs between METOP-B and NOAA-19
